When you browse on this site, cookies collect data to enhance your experience and personalize the content and advertising you see.
Visit our Privacy Policy to learn more. By continuing to use the site, you agree to this use of cookies and data.
  • In United Kingdom
  • List of Countries
  • For 7 days
  • Water Temperature
  • Weather Map
  • Weather Widgets
  • user-avatar
    Login

    Hourly Weather Zaranj

    Today, 22 October, Tuesday

    Time Temperature Precipitation Wind Pressure Humidity
    00:00 +22°C° 0 mm 8 mps 719 mmHg 24%
    01:00 +21°C° 0 mm 8 mps 719 mmHg 27%
    02:00 +21°C° 0 mm 8 mps 719 mmHg 30%
    03:00 +20°C° 0 mm 8 mps 719 mmHg 32%
    04:00 +20°C° 0 mm 8 mps 719 mmHg 38%
    05:00 +20°C° 0 mm 8 mps 719 mmHg 35%
    06:00 +20°C° 0 mm 8 mps 720 mmHg 32%
    07:00 +20°C° 0 mm 8 mps 720 mmHg 28%
    08:00 +22°C° 0 mm 9 mps 721 mmHg 25%
    09:00 +24°C° 0 mm 9 mps 721 mmHg 21%
    10:00 +27°C° 0 mm 10 mps 721 mmHg 17%
    11:00 +28°C° 0 mm 9 mps 720 mmHg 16%
    12:00 +29°C° 0 mm 9 mps 720 mmHg 15%
    13:00 +31°C° 0 mm 9 mps 720 mmHg 14%
    14:00 +31°C° 0 mm 8 mps 719 mmHg 15%
    15:00 +29°C° 0 mm 8 mps 719 mmHg 15%
    16:00 +29°C° 0 mm 8 mps 718 mmHg 16%
    17:00 +27°C° 0 mm 8 mps 719 mmHg 18%
    18:00 +26°C° 0 mm 7 mps 719 mmHg 20%
    19:00 +23°C° 0 mm 7 mps 719 mmHg 22%
    20:00 +23°C° 0 mm 7 mps 719 mmHg 23%
    21:00 +22°C° 0 mm 8 mps 719 mmHg 23%
    22:00 +21°C° 0 mm 8 mps 719 mmHg 24%
    23:00 +21°C° 0 mm 7 mps 719 mmHg 25%

    Tomorrow, 23 October, Wednesday

    Time Temperature Precipitation Wind Pressure Humidity
    00:00 +20°C° 0 mm 7 mps 719 mmHg 26%
    01:00 +18°C° 0 mm 7 mps 719 mmHg 27%
    02:00 +18°C° 0 mm 7 mps 719 mmHg 27%
    03:00 +17°C° 0 mm 7 mps 719 mmHg 27%
    04:00 +17°C° 0 mm 7 mps 719 mmHg 27%
    05:00 +17°C° 0 mm 7 mps 719 mmHg 27%
    06:00 +17°C° 0 mm 7 mps 719 mmHg 27%
    07:00 +18°C° 0 mm 7 mps 720 mmHg 27%
    08:00 +21°C° 0 mm 8 mps 720 mmHg 23%
    09:00 +23°C° 0 mm 9 mps 720 mmHg 20%
    10:00 +26°C° 0 mm 11 mps 721 mmHg 16%
    11:00 +28°C° 0 mm 11 mps 720 mmHg 15%
    12:00 +29°C° 0 mm 11 mps 719 mmHg 13%
    13:00 +31°C° 0 mm 11 mps 719 mmHg 12%
    14:00 +29°C° 0 mm 10 mps 718 mmHg 12%
    15:00 +29°C° 0 mm 10 mps 718 mmHg 13%
    16:00 +29°C° 0 mm 9 mps 718 mmHg 13%
    17:00 +27°C° 0 mm 9 mps 718 mmHg 16%
    18:00 +26°C° 0 mm 8 mps 718 mmHg 19%
    19:00 +23°C° 0 mm 7 mps 719 mmHg 22%
    20:00 +22°C° 0 mm 7 mps 719 mmHg 24%
    21:00 +21°C° 0 mm 7 mps 719 mmHg 25%
    22:00 +21°C° 0 mm 6 mps 720 mmHg 27%
    23:00 +20°C° 0 mm 7 mps 720 mmHg 27%

    Day after tomorrow, 24 October, Thursday

    Time Temperature Precipitation Wind Pressure Humidity
    00:00 +20°C° 0 mm 7 mps 720 mmHg 27%
    01:00 +18°C° 0 mm 7 mps 720 mmHg 27%
    02:00 +18°C° 0 mm 7 mps 720 mmHg 27%
    03:00 +17°C° 0 mm 7 mps 719 mmHg 26%
    04:00 +17°C° 0 mm 7 mps 719 mmHg 26%
    05:00 +17°C° 0 mm 7 mps 720 mmHg 25%
    06:00 +17°C° 0 mm 7 mps 720 mmHg 25%
    07:00 +17°C° 0 mm 7 mps 721 mmHg 24%
    08:00 +21°C° 0 mm 8 mps 721 mmHg 21%
    09:00 +23°C° 0 mm 9 mps 721 mmHg 18%
    10:00 +26°C° 0 mm 10 mps 721 mmHg 15%
    11:00 +27°C° 0 mm 10 mps 721 mmHg 14%
    12:00 +28°C° 0 mm 10 mps 720 mmHg 13%
    13:00 +29°C° 0 mm 10 mps 719 mmHg 12%
    14:00 +29°C° 0 mm 9 mps 719 mmHg 12%
    15:00 +29°C° 0 mm 8 mps 719 mmHg 11%
    16:00 +29°C° 0 mm 7 mps 719 mmHg 11%
    17:00 +27°C° 0 mm 7 mps 719 mmHg 13%
    18:00 +24°C° 0 mm 6 mps 719 mmHg 15%
    19:00 +23°C° 0 mm 6 mps 719 mmHg 17%
    20:00 +22°C° 0 mm 6 mps 720 mmHg 18%
    21:00 +21°C° 0 mm 6 mps 720 mmHg 18%
    22:00 +21°C° 0 mm 6 mps 720 mmHg 18%
    23:00 +20°C° 0 mm 6 mps 720 mmHg 19%

    25 October, Friday

    Time Temperature Precipitation Wind Pressure Humidity
    00:00 +20°C° 0 mm 6 mps 720 mmHg 20%
    01:00 +20°C° 0 mm 7 mps 720 mmHg 21%
    02:00 +18°C° 0 mm 7 mps 720 mmHg 21%
    03:00 +18°C° 0 mm 7 mps 720 mmHg 22%
    04:00 +18°C° 0 mm 7 mps 720 mmHg 22%
    05:00 +18°C° 0 mm 7 mps 720 mmHg 22%
    06:00 +18°C° 0 mm 7 mps 720 mmHg 22%
    07:00 +18°C° 0 mm 7 mps 721 mmHg 22%
    08:00 +21°C° 0 mm 7 mps 721 mmHg 20%
    09:00 +23°C° 0 mm 8 mps 721 mmHg 18%
    10:00 +27°C° 0 mm 8 mps 721 mmHg 16%
    11:00 +28°C° 0 mm 8 mps 721 mmHg 15%
    12:00 +29°C° 0 mm 7 mps 720 mmHg 14%
    13:00 +30°C° 0 mm 7 mps 719 mmHg 13%
    14:00 +30°C° 0 mm 6 mps 719 mmHg 13%
    15:00 +30°C° 0 mm 6 mps 719 mmHg 14%
    16:00 +30°C° 0 mm 5 mps 718 mmHg 14%
    17:00 +28°C° 0 mm 4 mps 718 mmHg 17%
    18:00 +26°C° 0 mm 4 mps 719 mmHg 20%
    19:00 +24°C° 0 mm 3 mps 719 mmHg 23%
    20:00 +22°C° 0 mm 4 mps 719 mmHg 24%
    21:00 +22°C° 0 mm 4 mps 719 mmHg 26%
    22:00 +21°C° 0 mm 5 mps 719 mmHg 27%
    23:00 +21°C° 0 mm 5 mps 719 mmHg 28%

    26 October, Saturday

    Time Temperature Precipitation Wind Pressure Humidity
    00:00 +21°C° 0 mm 5 mps 719 mmHg 28%
    01:00 +20°C° 0 mm 4 mps 719 mmHg 28%
    02:00 +20°C° 0 mm 5 mps 719 mmHg 28%
    03:00 +19°C° 0 mm 5 mps 719 mmHg 29%
    04:00 +19°C° 0 mm 5 mps 719 mmHg 29%
    05:00 +19°C° 0 mm 5 mps 720 mmHg 28%
    06:00 +19°C° 0 mm 5 mps 720 mmHg 28%
    07:00 +19°C° 0 mm 5 mps 720 mmHg 28%
    08:00 +21°C° 0 mm 5 mps 721 mmHg 24%
    09:00 +25°C° 0 mm 5 mps 721 mmHg 21%
    10:00 +27°C° 0 mm 5 mps 721 mmHg 17%
    11:00 +28°C° 0 mm 4 mps 721 mmHg 16%
    12:00 +30°C° 0 mm 4 mps 720 mmHg 16%
    13:00 +31°C° 0 mm 3 mps 719 mmHg 15%
    14:00 +31°C° 0 mm 2 mps 719 mmHg 15%
    15:00 +31°C° 0 mm 2 mps 719 mmHg 15%
    16:00 +31°C° 0 mm 1 mps 718 mmHg 15%
    17:00 +28°C° 0 mm 1 mps 718 mmHg 19%
    18:00 +25°C° 0 mm 1 mps 718 mmHg 23%
    19:00 +21°C° 0 mm 1 mps 718 mmHg 27%
    20:00 +21°C° 0 mm 1 mps 718 mmHg 28%
    21:00 +21°C° 0 mm 1 mps 718 mmHg 28%
    22:00 +21°C° 0 mm 1 mps 718 mmHg 29%
    23:00 +20°C° 0 mm 2 mps 718 mmHg 30%

    27 October, Sunday

    Time Temperature Precipitation Wind Pressure Humidity
    00:00 +20°C° 0 mm 2 mps 718 mmHg 32%
    01:00 +20°C° 0 mm 3 mps 718 mmHg 33%
    02:00 +19°C° 0 mm 3 mps 718 mmHg 33%
    03:00 +19°C° 0 mm 2 mps 717 mmHg 32%
    04:00 +18°C° 0 mm 2 mps 717 mmHg 32%
    05:00 +19°C° 0 mm 2 mps 718 mmHg 30%
    06:00 +20°C° 0 mm 1 mps 718 mmHg 28%
    07:00 +20°C° 0 mm 1 mps 719 mmHg 26%
    08:00 +23°C° 0 mm 1 mps 719 mmHg 23%
    09:00 +26°C° 0 mm 1 mps 719 mmHg 19%
    10:00 +29°C° 0 mm 1 mps 720 mmHg 16%
    11:00 +30°C° 0 mm 1 mps 719 mmHg 15%
    12:00 +32°C° 0 mm 2 mps 718 mmHg 13%
    13:00 +34°C° 0 mm 2 mps 718 mmHg 12%
    14:00 +35°C° 0 mm 2 mps 717 mmHg 12%
    15:00 +35°C° 0 mm 3 mps 717 mmHg 12%
    16:00 +35°C° 0 mm 3 mps 717 mmHg 12%
    17:00 +33°C° 0 mm 3 mps 716 mmHg 16%
    18:00 +29°C° 0 mm 2 mps 716 mmHg 19%
    19:00 +26°C° 0 mm 2 mps 716 mmHg 23%
    20:00 +25°C° 0 mm 2 mps 716 mmHg 23%
    21:00 +25°C° 0 mm 2 mps 717 mmHg 24%
    22:00 +24°C° 0 mm 2 mps 717 mmHg 24%
    23:00 +24°C° 0 mm 2 mps 717 mmHg 25%

    28 October, Monday

    Time Temperature Precipitation Wind Pressure Humidity
    00:00 +23°C° 0 mm 2 mps 716 mmHg 27%
    01:00 +23°C° 0 mm 2 mps 716 mmHg 28%
    02:00 +21°C° 0 mm 2 mps 716 mmHg 29%
    03:00 +20°C° 0 mm 2 mps 716 mmHg 30%
    04:00 +20°C° 0 mm 2 mps 716 mmHg 32%
    05:00 +20°C° 0 mm 2 mps 717 mmHg 31%
    06:00 +22°C° 0 mm 1 mps 717 mmHg 31%
    07:00 +22°C° 0 mm 1 mps 717 mmHg 31%
    08:00 +25°C° 0 mm 2 mps 718 mmHg 27%
    09:00 +28°C° 0 mm 3 mps 718 mmHg 24%
    10:00 +30°C° 0 mm 3 mps 718 mmHg 21%
    11:00 +31°C° 0 mm 3 mps 718 mmHg 19%
    12:00 +32°C° 0 mm 2 mps 717 mmHg 17%
    13:00 +34°C° 0 mm 2 mps 717 mmHg 16%
    14:00 +34°C° 0 mm 2 mps 716 mmHg 16%
    15:00 +34°C° 0 mm 1 mps 716 mmHg 15%
    16:00 +34°C° 0 mm 1 mps 716 mmHg 15%
    17:00 +31°C° 0 mm 1 mps 716 mmHg 18%
    18:00 +28°C° 0 mm 1 mps 716 mmHg 22%
    19:00 +25°C° 0 mm 1 mps 716 mmHg 25%
    20:00 +25°C° 0 mm 1 mps 717 mmHg 25%
    21:00 +25°C° 0 mm 2 mps 717 mmHg 25%
    22:00 +26°C° 0 mm 3 mps 717 mmHg 25%
    23:00 +25°C° 0 mm 2 mps 717 mmHg 27%
    Show more